SCP
0 0 0 0 0 0 0 0 0 0 0 0 0 0 0 0 0 0 0 0 0 -0 -0 -0 -0 -0 0 0 0 0 0 0
0 0 0 0 0 0 0 0 0 0 0 0 0 0 0 0 0 0 0 0 0 -0 -0 -0 -0 -0 0 0 0 0 0 0
0 0 0 0 0 0 0 0 0 0 0 0 0 0 0 0 0 0 0 0 -0 0 -0 -0 -0 -0 -0 0 0 0 0 0
0 0 0 0 0 0 0 0 0 0 0 0 0 0 0 0 0 0 0 0 0 0 0 -0 -0 -0 0 0 0 0 0 0
0 0 0 0 0 0 0 0 0 0 0 0 0 0 0 0 0 0 0 0 0 0 -0 -0 -0 -0 -0 0 0 0 0 0
0 0 0 0 0 0 0 0 0 0 0 0 0 0 -0 -0 0 0 0 0 0 -0 -0 -0 0 0 0 0 0 0 0 0
0 0 0 0 0 0 0 0 0 0 0 0 0 -0 -0 -0 -0 -0 -0 0 -0 -0 -0 0 0 0 0 0 0 0 0 0
0 0 0 0 0 0 0 0 0 0 0 0 0 0 -0 -0 0 0 0 -0 -0 -0 0 0 0 0 0 0 0 0 0 0
0 0 0 0 0 0 0 0 0 0 0 0 0 0 -0 0 0 0 -0 0 -0 0 0 0 0 0 0 0 0 0 0 0
0 0 0 0 0 0 0 0 0 0 0 0 0 0 0 0 0 0 0 0 0 0 0 0 0 0 0 0 0 0 0 0
0 0 0 0 0 0 0 0 0 0 0 0 0 -0 -0 -0 -0 -0 -0 -0 0 0 0 0 0 -0 -0 0 0 0 0 0
0 0 0 0 0 0 0 0 0 0 0 0 0 -0 -0 -0 0 -0 -0 0 0 0 0 0 -0 -0 -0 0 0 0 0 0
0 0 0 0 0 0 0 0 0 0 0 0 0 0 -0 0 0 -0 0 0 0 0 0 -0 0 -0 -0 -0 0 0 0 0
0 0 0 0 0 0 0 0 0 0 0 0 0 -0 0 0 0 0 0 0 0 0 0 0 0 0 -0 -0 -0 -0 0 0
0 0 0 0 0 0 0 0 0 0 0 0 0 -0 -0 -0 -0 -0 -0 -0 0 0 0 0 0 0 0 0 0 -0 -0 -0
0 0 0 0 0 0 0 0 0 0 0 0 0 0 -0 -0 -0 -0 -0 -0 -0 -0 0 0 0 0 0 0 0 0 -0 -0
0 0 0 0 0 0 0 0 0 0 0 0 0 0 0 -0 0 -0 -0 0 0 0 -0 0 0 -0 0 0 0 0 0 0
0 0 0 0 0 0 0 0 0 0 0 0 0 0 0 -0 -0 -0 -0 0 0 0 -0 0 0 0 0 0 0 0 0 -0
0 0 0 0 0 0 0 0 0 0 0 0 0 0 0 0 0 0 -0 -0 -0 -0 0 -0 -0 -0 -0 -0 -0 -0 -0 -0
0 0 0 0 0 0 0 0 0 0 0 0 0 0 0 0 0 0 -0 -0 -0 -0 -0 -0 -0 -0 -0 -0 -0 0 0 0
Wind_Speed_500mb
60 63 68 66 68 74 90 94 68 68 67 80 76 73 70 71 74 72 76 70 71 64 63 70 62 76 71 64 55 106 110 116
61 64 64 66 76 79 87 68 70 69 75 76 75 71 62 63 64 62 68 69 72 67 72 75 68 70 72 76 53 83 111 113
61 68 69 83 81 87 74 69 60 75 78 60 64 61 56 57 59 67 68 69 71 70 64 79 66 61 76 80 66 55 120 113
69 69 72 80 84 76 70 62 76 76 72 58 56 56 57 65 63 63 67 68 64 56 60 82 78 72 64 72 55 52 116 113
68 74 82 80 80 66 67 72 72 68 67 60 57 60 60 64 68 66 65 65 58 50 59 75 65 50 49 61 35 74 93 103
68 76 79 85 76 70 69 68 70 60 64 62 62 64 68 68 67 61 62 60 58 47 54 66 41 43 36 42 37 72 70 88
72 76 80 80 71 73 73 72 55 56 60 62 63 65 66 66 63 58 59 55 47 58 68 42 32 33 25 38 44 63 93 75
66 70 72 74 69 72 71 56 53 53 53 55 57 60 62 61 58 55 53 50 45 54 36 21 18 14 17 28 53 59 63 70
57 61 62 63 61 65 62 54 49 50 51 49 50 51 56 56 53 48 42 40 38 16 7 17 31 19 38 58 73 89 106 110
51 52 56 57 58 60 57 54 49 50 52 50 50 50 49 47 47 40 35 34 17 22 33 50 68 60 76 84 100 110 107 100
45 45 48 49 51 54 54 54 54 54 51 48 49 50 46 42 34 29 27 19 24 39 49 54 74 79 90 103 107 107 96 94
40 39 41 41 43 46 52 54 52 52 47 46 44 44 41 35 30 28 34 39 42 46 50 62 70 82 84 99 107 107 101 97
34 35 35 34 35 36 42 47 48 49 42 40 42 39 35 31 29 29 36 45 51 53 59 62 67 79 79 81 87 91 98 96
28 28 28 26 29 27 32 36 43 47 52 45 39 34 31 30 33 37 37 45 53 60 62 61 64 69 71 75 74 73 80 77
29 25 22 18 23 17 25 29 31 38 43 48 48 43 37 37 41 45 52 54 57 60 66 67 68 68 63 63 64 63 67 65
30 24 21 15 11 16 17 24 29 31 35 38 40 41 41 44 44 44 49 52 58 63 63 61 63 61 55 49 50 52 53 52
32 31 23 20 12 8 12 18 24 26 30 35 34 34 35 38 43 47 47 49 51 52 57 61 60 52 47 43 42 44 43 42
37 35 30 29 25 19 14 9 10 10 12 13 16 22 26 27 28 34 36 40 41 44 43 34 36 34 34 33 35 37 35 27
40 43 39 38 34 31 26 18 12 9 8 9 5 4 9 12 12 15 18 23 26 23 19 24 23 24 25 23 22 23 24 19
50 52 51 51 45 37 32 22 15 9 4 4 7 7 5 6 7 8 8 7 7 12 15 18 17 16 16 17 15 10 10 9
Wind_Direction_500mb
329 324 320 320 318 311 312 319 320 317 313 309 310 305 296 293 294 291 291 287 287 287 276 270 272 277 276 287 284 212 217 214
326 328 323 320 319 317 323 324 317 319 315 309 309 310 301 299 295 293 291 286 282 282 279 272 276 278 279 273 288 219 212 214
327 327 326 325 325 325 326 323 321 317 322 319 316 314 306 299 293 295 298 292 282 285 286 280 272 271 274 272 275 251 218 210
329 328 327 327 327 325 326 322 316 325 332 325 317 316 301 298 305 309 308 301 292 286 283 280 287 268 265 268 294 241 207 211
329 328 329 329 329 330 320 323 323 329 332 329 320 313 313 313 311 310 309 307 299 293 284 275 269 264 266 270 305 232 210 209
327 328 330 332 335 329 325 323 329 330 332 330 327 323 318 317 317 316 314 311 302 291 286 287 259 271 268 274 263 213 195 193
327 330 333 334 331 332 333 329 338 335 332 330 328 325 326 327 329 324 319 318 317 299 292 286 249 263 257 261 227 202 204 197
326 329 332 333 333 335 336 341 340 334 331 332 332 331 333 333 332 333 332 328 311 304 293 276 249 249 227 202 171 158 152 150
327 328 335 334 339 338 346 345 339 337 333 334 332 336 338 338 341 346 342 340 339 335 39 143 142 134 173 163 144 135 131 133
332 331 339 342 346 347 354 352 349 344 346 344 344 344 345 350 355 353 356 356 22 80 110 125 133 142 145 141 130 128 124 126
334 333 340 347 352 357 360 2 4 360 356 356 354 353 356 358 3 7 25 46 82 95 100 108 119 144 138 130 129 122 122 119
334 332 340 346 357 4 10 11 12 3 5 8 7 5 6 9 24 49 74 85 89 95 98 104 117 130 129 122 121 119 120 115
330 329 335 342 359 6 18 19 24 15 14 18 21 16 20 30 48 59 73 84 91 95 95 99 105 115 118 118 118 122 119 114
316 327 326 341 355 11 25 21 33 29 27 30 33 35 39 51 63 73 78 82 87 93 99 101 104 105 109 111 115 112 110 111
297 316 313 336 357 17 34 34 27 45 39 36 46 51 58 64 71 76 81 84 88 92 94 97 98 101 105 107 102 97 98 103
287 290 294 300 351 34 46 47 40 40 48 52 50 55 62 66 69 76 81 85 92 96 98 99 97 94 94 100 107 106 106 110
278 277 277 270 279 334 55 56 54 46 46 42 46 60 65 70 80 79 81 84 88 87 91 92 94 103 111 114 109 106 106 109
276 275 258 256 254 273 294 313 347 352 1 40 51 55 68 73 78 92 95 96 99 103 101 105 114 118 120 112 108 108 104 104
270 261 254 253 252 253 270 281 293 316 349 2 30 59 46 56 76 91 99 108 112 114 110 113 117 117 115 114 114 111 120 119
264 255 248 245 245 241 247 257 261 262 288 10 21 32 69 91 106 107 113 117 121 131 139 142 145 141 135 131 135 143 135 137
Wind_Speed_850mb
60 63 68 66 68 74 90 94 68 68 67 80 76 73 70 71 74 72 76 70 71 64 63 70 62 76 71 64 55 106 110 116
61 64 64 66 76 79 87 68 70 69 75 76 75 71 62 63 64 62 68 69 72 67 72 75 68 70 72 76 53 83 111 113
61 68 69 83 81 87 74 69 60 75 78 60 64 61 56 57 59 67 68 69 71 70 64 79 66 61 76 80 66 55 120 113
69 69 72 80 84 76 70 62 76 76 72 58 56 56 57 65 63 63 67 68 64 56 60 82 78 72 64 72 55 52 116 113
68 74 82 80 80 66 67 72 72 68 67 60 57 60 60 64 68 66 65 65 58 50 59 75 65 50 49 61 35 74 93 103
68 76 79 85 76 70 69 68 70 60 64 62 62 64 68 68 67 61 62 60 58 47 54 66 41 43 36 42 37 72 70 88
72 76 80 80 71 73 73 72 55 56 60 62 63 65 66 66 63 58 59 55 47 58 68 42 32 33 25 38 44 63 93 75
66 70 72 74 69 72 71 56 53 53 53 55 57 60 62 61 58 55 53 50 45 54 36 21 18 14 17 28 53 59 63 70
57 61 62 63 61 65 62 54 49 50 51 49 50 51 56 56 53 48 42 40 38 16 7 17 31 19 38 58 73 89 106 110
51 52 56 57 58 60 57 54 49 50 52 50 50 50 49 47 47 40 35 34 17 22 33 50 68 60 76 84 100 110 107 100
45 45 48 49 51 54 54 54 54 54 51 48 49 50 46 42 34 29 27 19 24 39 49 54 74 79 90 103 107 107 96 94
40 39 41 41 43 46 52 54 52 52 47 46 44 44 41 35 30 28 34 39 42 46 50 62 70 82 84 99 107 107 101 97
34 35 35 34 35 36 42 47 48 49 42 40 42 39 35 31 29 29 36 45 51 53 59 62 67 79 79 81 87 91 98 96
28 28 28 26 29 27 32 36 43 47 52 45 39 34 31 30 33 37 37 45 53 60 62 61 64 69 71 75 74 73 80 77
29 25 22 18 23 17 25 29 31 38 43 48 48 43 37 37 41 45 52 54 57 60 66 67 68 68 63 63 64 63 67 65
30 24 21 15 11 16 17 24 29 31 35 38 40 41 41 44 44 44 49 52 58 63 63 61 63 61 55 49 50 52 53 52
32 31 23 20 12 8 12 18 24 26 30 35 34 34 35 38 43 47 47 49 51 52 57 61 60 52 47 43 42 44 43 42
37 35 30 29 25 19 14 9 10 10 12 13 16 22 26 27 28 34 36 40 41 44 43 34 36 34 34 33 35 37 35 27
40 43 39 38 34 31 26 18 12 9 8 9 5 4 9 12 12 15 18 23 26 23 19 24 23 24 25 23 22 23 24 19
50 52 51 51 45 37 32 22 15 9 4 4 7 7 5 6 7 8 8 7 7 12 15 18 17 16 16 17 15 10 10 9
Wind_Direction_850mb
329 324 320 320 318 311 312 319 320 317 313 309 310 305 296 293 294 291 291 287 287 287 276 270 272 277 276 287 284 212 217 214
326 328 323 320 319 317 323 324 317 319 315 309 309 310 301 299 295 293 291 286 282 282 279 272 276 278 279 273 288 219 212 214
327 327 326 325 325 325 326 323 321 317 322 319 316 314 306 299 293 295 298 292 282 285 286 280 272 271 274 272 275 251 218 210
329 328 327 327 327 325 326 322 316 325 332 325 317 316 301 298 305 309 308 301 292 286 283 280 287 268 265 268 294 241 207 211
329 328 329 329 329 330 320 323 323 329 332 329 320 313 313 313 311 310 309 307 299 293 284 275 269 264 266 270 305 232 210 209
327 328 330 332 335 329 325 323 329 330 332 330 327 323 318 317 317 316 314 311 302 291 286 287 259 271 268 274 263 213 195 193
327 330 333 334 331 332 333 329 338 335 332 330 328 325 326 327 329 324 319 318 317 299 292 286 249 263 257 261 227 202 204 197
326 329 332 333 333 335 336 341 340 334 331 332 332 331 333 333 332 333 332 328 311 304 293 276 249 249 227 202 171 158 152 150
327 328 335 334 339 338 346 345 339 337 333 334 332 336 338 338 341 346 342 340 339 335 39 143 142 134 173 163 144 135 131 133
332 331 339 342 346 347 354 352 349 344 346 344 344 344 345 350 355 353 356 356 22 80 110 125 133 142 145 141 130 128 124 126
334 333 340 347 352 357 360 2 4 360 356 356 354 353 356 358 3 7 25 46 82 95 100 108 119 144 138 130 129 122 122 119
334 332 340 346 357 4 10 11 12 3 5 8 7 5 6 9 24 49 74 85 89 95 98 104 117 130 129 122 121 119 120 115
330 329 335 342 359 6 18 19 24 15 14 18 21 16 20 30 48 59 73 84 91 95 95 99 105 115 118 118 118 122 119 114
316 327 326 341 355 11 25 21 33 29 27 30 33 35 39 51 63 73 78 82 87 93 99 101 104 105 109 111 115 112 110 111
297 316 313 336 357 17 34 34 27 45 39 36 46 51 58 64 71 76 81 84 88 92 94 97 98 101 105 107 102 97 98 103
287 290 294 300 351 34 46 47 40 40 48 52 50 55 62 66 69 76 81 85 92 96 98 99 97 94 94 100 107 106 106 110
278 277 277 270 279 334 55 56 54 46 46 42 46 60 65 70 80 79 81 84 88 87 91 92 94 103 111 114 109 106 106 109
276 275 258 256 254 273 294 313 347 352 1 40 51 55 68 73 78 92 95 96 99 103 101 105 114 118 120 112 108 108 104 104
270 261 254 253 252 253 270 281 293 316 349 2 30 59 46 56 76 91 99 108 112 114 110 113 117 117 115 114 114 111 120 119
264 255 248 245 245 241 247 257 261 262 288 10 21 32 69 91 106 107 113 117 121 131 139 142 145 141 135 131 135 143 135 137